Location: Wallasey
(53.4265°N, 3.0662°W)
Time: 15:34:27
(UTC+00:00)

XW-2B - Pass Details

Date: 16 October 2019
Orbit: 507 x 528 km, 97.5° (Epoch: 15 November)

Event Time Altitude Azimuth Distance (km) Brightness Sun altitude
Rises 06:29:18 0° 24° (NNE) 2,636 ? -11.3°
Reaches altitude 10° 06:31:44 10° 39° (NE) 1,741 ? -10.9°
Maximum altitude 06:34:45 23° 93° (E) 1,136 ? -10.5°
Drops below altitude 10° 06:37:44 10° 146° (SSE) 1,725 ? -10.1°
Sets 06:40:09 0° 162° (SSE) 2,604 ? -9.7°
